TimeCDT,TemperatureF,Dew PointF,Humidity,Sea Level PressureIn,VisibilityMPH,Wind Direction,Wind SpeedMPH,Gust SpeedMPH,PrecipitationIn,Events,Conditions,WindDirDegrees,DateUTC
12:15 AM,69.3,65.1,87,30.17,10.0,SSE,8.1,-,N/A,,Clear,160,2013-05-15 05:15:00
12:35 AM,69.1,64.6,86,30.17,10.0,South,5.8,-,N/A,,Clear,170,2013-05-15 05:35:00
12:55 AM,68.7,64.4,86,30.18,10.0,South,4.6,-,N/A,,Clear,170,2013-05-15 05:55:00
1:35 AM,68.2,65.5,91,30.17,10.0,SSE,4.6,-,N/A,,Clear,160,2013-05-15 06:35:00
1:55 AM,67.5,65.3,93,30.16,10.0,South,5.8,-,N/A,,Clear,170,2013-05-15 06:55:00
2:15 AM,68.2,65.8,92,30.16,10.0,South,5.8,-,N/A,,Clear,170,2013-05-15 07:15:00
2:35 AM,68.0,65.8,93,30.16,10.0,SSE,5.8,-,N/A,,Clear,160,2013-05-15 07:35:00
2:55 AM,68.2,66.2,93,30.16,10.0,SSE,4.6,-,N/A,,Clear,160,2013-05-15 07:55:00
3:15 AM,68.2,66.0,93,30.16,10.0,Calm,Calm,-,N/A,,Clear,0,2013-05-15 08:15:00
3:35 AM,67.8,65.5,92,30.16,10.0,Calm,Calm,-,N/A,,Clear,0,2013-05-15 08:35:00
3:55 AM,67.5,65.8,95,30.15,10.0,SE,3.5,-,N/A,,Clear,140,2013-05-15 08:55:00
4:15 AM,67.1,65.3,94,30.15,10.0,SE,3.5,-,N/A,,Clear,140,2013-05-15 09:15:00
4:35 AM,68.2,66.2,93,30.14,10.0,SE,3.5,-,N/A,,Clear,140,2013-05-15 09:35:00
4:55 AM,68.0,66.2,94,30.15,10.0,SE,3.5,-,N/A,,Clear,140,2013-05-15 09:55:00
5:15 AM,68.0,66.4,95,30.15,10.0,Calm,Calm,-,N/A,,Clear,0,2013-05-15 10:15:00
5:35 AM,67.3,65.7,95,30.14,10.0,SE,3.5,-,N/A,,Clear,140,2013-05-15 10:35:00
5:55 AM,67.8,66.2,95,30.14,10.0,SE,3.5,-,N/A,,Clear,140,2013-05-15 10:55:00
6:15 AM,68.2,66.6,95,30.14,10.0,ESE,3.5,-,N/A,,Clear,120,2013-05-15 11:15:00
6:35 AM,68.0,66.4,95,30.14,10.0,Calm,Calm,-,N/A,,Clear,0,2013-05-15 11:35:00
6:55 AM,68.9,66.6,92,30.14,10.0,SE,3.5,-,N/A,,Clear,130,2013-05-15 11:55:00
7:15 AM,69.4,67.1,92,30.15,10.0,Calm,Calm,-,N/A,,Clear,0,2013-05-15 12:15:00
7:35 AM,70.7,68.0,91,30.15,10.0,Calm,Calm,-,N/A,,Clear,0,2013-05-15 12:35:00
7:55 AM,72.1,68.9,89,30.16,10.0,South,4.6,-,N/A,,Clear,170,2013-05-15 12:55:00
8:15 AM,72.7,67.5,84,30.16,10.0,SSE,8.1,-,N/A,,Clear,160,2013-05-15 13:15:00
8:35 AM,74.5,67.5,79,30.16,10.0,SSE,10.4,-,N/A,,Scattered Clouds,150,2013-05-15 13:35:00
8:55 AM,74.3,67.3,79,30.17,10.0,South,10.4,-,N/A,,Scattered Clouds,170,2013-05-15 13:55:00
9:15 AM,74.7,66.6,76,30.16,10.0,South,9.2,-,N/A,,Mostly Cloudy,170,2013-05-15 14:15:00
9:35 AM,75.9,67.1,74,30.17,10.0,SSE,8.1,16.1,N/A,,Mostly Cloudy,160,2013-05-15 14:35:00
9:55 AM,77.0,66.9,71,30.17,10.0,SE,12.7,-,N/A,,Scattered Clouds,140,2013-05-15 14:55:00
10:15 AM,77.2,66.7,70,30.17,10.0,South,10.4,-,N/A,,Mostly Cloudy,170,2013-05-15 15:15:00
10:35 AM,77.2,66.6,70,30.17,10.0,South,10.4,16.1,N/A,,Mostly Cloudy,180,2013-05-15 15:35:00
10:55 AM,77.7,65.3,65,30.17,10.0,South,12.7,-,N/A,,Scattered Clouds,190,2013-05-15 15:55:00
11:15 AM,78.3,65.7,65,30.17,10.0,South,12.7,18.4,N/A,,Scattered Clouds,190,2013-05-15 16:15:00
11:35 AM,79.0,64.8,62,30.17,10.0,South,12.7,18.4,N/A,,Scattered Clouds,180,2013-05-15 16:35:00
11:55 AM,78.1,64.9,64,30.16,10.0,South,16.1,-,N/A,,Scattered Clouds,180,2013-05-15 16:55:00
12:15 PM,77.9,65.1,65,30.15,10.0,South,13.8,-,N/A,,Clear,170,2013-05-15 17:15:00
12:55 PM,77.5,64.4,64,30.14,10.0,South,12.7,-,N/A,,Clear,180,2013-05-15 17:55:00
1:15 PM,76.8,64.8,66,30.13,10.0,South,11.5,17.3,N/A,,Clear,170,2013-05-15 18:15:00
1:35 PM,75.9,66.0,71,30.12,10.0,SSE,15.0,-,N/A,,Scattered Clouds,150,2013-05-15 18:35:00
1:55 PM,75.0,65.7,73,30.11,10.0,SE,12.7,-,N/A,,Mostly Cloudy,140,2013-05-15 18:55:00
2:15 PM,74.7,66.4,75,30.10,10.0,SE,12.7,-,N/A,,Scattered Clouds,140,2013-05-15 19:15:00
2:35 PM,74.5,66.9,77,30.09,10.0,SSE,11.5,-,N/A,,Clear,150,2013-05-15 19:35:00
2:55 PM,74.8,67.1,77,30.08,10.0,SE,11.5,-,N/A,,Clear,140,2013-05-15 19:55:00
3:15 PM,74.8,66.9,76,30.07,10.0,SE,11.5,17.3,N/A,,Scattered Clouds,140,2013-05-15 20:15:00
3:35 PM,75.7,67.1,74,30.06,10.0,SSE,10.4,18.4,N/A,,Scattered Clouds,150,2013-05-15 20:35:00
3:55 PM,75.4,67.1,75,30.05,10.0,SSE,15.0,-,N/A,,Mostly Cloudy,150,2013-05-15 20:55:00
4:35 PM,74.7,66.4,75,30.04,10.0,SSE,11.5,-,N/A,,Mostly Cloudy,150,2013-05-15 21:35:00
4:55 PM,74.5,66.7,77,30.04,10.0,SSE,12.7,17.3,N/A,,Overcast,150,2013-05-15 21:55:00
5:15 PM,75.2,67.1,76,30.04,10.0,SSE,13.8,-,N/A,,Mostly Cloudy,160,2013-05-15 22:15:00
5:35 PM,75.2,66.9,75,30.03,10.0,SSE,15.0,-,N/A,,Mostly Cloudy,150,2013-05-15 22:35:00
5:55 PM,75.2,67.1,76,30.03,10.0,SSE,16.1,19.6,N/A,,Mostly Cloudy,160,2013-05-15 22:55:00
6:15 PM,74.8,67.3,77,30.02,10.0,SSE,15.0,20.7,N/A,,Mostly Cloudy,150,2013-05-15 23:15:00
6:35 PM,74.5,66.4,76,30.01,10.0,SSE,12.7,-,N/A,,Scattered Clouds,150,2013-05-15 23:35:00
6:55 PM,74.3,66.4,76,30.01,10.0,SSE,13.8,19.6,N/A,,Mostly Cloudy,150,2013-05-15 23:55:00
7:15 PM,74.1,66.4,77,30.01,10.0,SSE,13.8,17.3,N/A,,Mostly Cloudy,160,2013-05-16 00:15:00
7:35 PM,73.4,66.6,79,30.01,10.0,SSE,11.5,-,N/A,,Scattered Clouds,150,2013-05-16 00:35:00
7:55 PM,72.7,66.7,82,30.01,10.0,SSE,13.8,17.3,N/A,,Mostly Cloudy,150,2013-05-16 00:55:00
8:15 PM,72.5,66.4,81,30.01,10.0,SSE,9.2,-,N/A,,Mostly Cloudy,150,2013-05-16 01:15:00
8:35 PM,72.5,66.4,81,30.01,10.0,SSE,10.4,-,N/A,,Mostly Cloudy,160,2013-05-16 01:35:00
8:55 PM,72.3,66.9,83,30.01,10.0,SSE,9.2,-,N/A,,Scattered Clouds,160,2013-05-16 01:55:00
9:15 PM,72.1,67.1,84,30.01,10.0,SSE,12.7,17.3,N/A,,Scattered Clouds,150,2013-05-16 02:15:00
9:35 PM,71.8,67.3,86,30.00,10.0,SSE,9.2,-,N/A,,Scattered Clouds,160,2013-05-16 02:35:00
9:55 PM,72.0,67.6,86,30.00,10.0,SSE,10.4,-,N/A,,Scattered Clouds,150,2013-05-16 02:55:00
10:15 PM,71.8,67.8,87,30.00,10.0,SSE,11.5,-,N/A,,Scattered Clouds,150,2013-05-16 03:15:00
10:35 PM,71.8,67.6,87,30.00,10.0,SSE,15.0,-,N/A,,Scattered Clouds,150,2013-05-16 03:35:00
10:55 PM,72.0,67.6,86,30.00,10.0,SSE,11.5,16.1,N/A,,Scattered Clouds,150,2013-05-16 03:55:00
11:15 PM,72.1,68.0,87,30.00,10.0,SSE,11.5,-,N/A,,Scattered Clouds,150,2013-05-16 04:15:00
11:35 PM,72.0,67.6,86,30.01,10.0,SSE,11.5,-,N/A,,Scattered Clouds,150,2013-05-16 04:35:00
11:55 PM,72.0,68.2,88,29.99,10.0,SSE,11.5,-,N/A,,Scattered Clouds,160,2013-05-16 04:55:00